User: anonymous   Login
Location: Unspecified
(0.0000°N, 0.0000°E)
Time: 09:08:34
(UTC+01:00)
Language:

Cosmos 1626 Rocket - Orbit

View from above orbital plane
View from above orbital plane
View from above satellite
View from above satellite

Ground track
Ground track

The orbit data is extracted from the following two-line orbital elements,

1 15495U 85009B   16044.76943988  .00000215  00000-0  23023-4 0  9997
2 15495  82.5245 285.8598 0021122 141.3707 218.9024 14.83675267677395
Epoch (UTC): 13 February 2016 18:27:59
Eccentricity: 0.0021122
inclination: 82.5245°
perigee height: 603 km
apogee height: 632 km
right ascension of ascending node: 285.8598°
argument of perigee: 141.3707°
revolutions per day: 14.83675267
mean anomaly at epoch: 218.9024°
orbit number at epoch: 67739

The dashed part of the orbit path shows where the satellite is in the earth's shadow,  

DLR